Roanne

France     46˚02′35″N   4˚04′19″E
temp.,
°C
wind,
m/s
gust,
m/s
humid.,
%
clouds,
%
prec.,
mm/h
press.,
hPa
HPBL,
m
3 december, thu
thu301:00+1˚wsw1194100 0.1 101642
04:00+1˚ssw119876 0.5 101495
07:00+2˚s229888 0.7 101299
10:00+2˚s359093 0.0 1010291
13:00+4˚sse468290 0.1 1006473
16:00+5˚sse51083100 0.0 1001489
19:00+4˚sse61287100 0.0 997554
22:00+5˚s61481100 0.0 9941070
4 december, fri
fri401:00+5˚s81877100 0.0 9911254
04:00+4˚sse8178393 0.0 988943
07:00+4˚ssw5128380 0.1 988607
10:00+4˚ssw2881100 0.0 989823
13:00+6˚sw3565100 0.1 9881192
16:00+5˚sse2373100 0.0 989163
19:00+1˚ssw1287100 0.1 99025
22:00−1˚s229124 0.0 99133
5 december, sat
sat501:00ssw128858 0.0 99229
04:00−1˚ssw229296 0.0 99425
07:00−2˚s129395 0.0 99527
10:00+1˚sse23771 0.0 995145
13:00+5˚sse34591 0.0 995565
16:00+4˚sse47650 0.0 993389
19:00s368433 0.0 994150
22:00+1˚sse5107793 0.1 995465
6 december, sun
sun601:00−1˚s498767 0.1 996256
04:00−1˚s339186 0.0 99769
07:00−2˚s368974 0.0 997131
10:00+1˚s467549 0.0 997256
13:00+6˚sse356564 0.0 996803
16:00+5˚wsw248096 0.2 996268
19:00+2˚wnw369898 1.4 999319
22:00+1˚wnw2792100 0.3 1002649
7 december, mon
mon701:00−1˚wnw269394 0.4 1004380
04:00−1˚w2594100 0.1 1007215
07:00−1˚wsw269162 0.2 1008253
10:00s238531 0.0 1010180
13:00+4˚ssw256932 0.0 1008728
16:00+3˚ssw267863 0.0 1008381
19:00−1˚s238832 0.0 100939
22:00−1˚s2389100 0.0 100957